Wetbulb
41.86 41.78 41.70 41.58 41.29 41.13 41.13 41.34 41.42 41.13 40.73 40.28 39.74 39.48 39.27 38.96 38.68 38.68 38.89 39.07 39.23 39.60 40.11 40.65 41.03 41.40 41.77 42.10 42.02 41.89 41.80 41.84 42.05 42.18 42.30 42.34 42.67 43.22 43.68 44.15 44.71 44.97 45.40 46.05 46.62 47.15 47.69 48.23 49.00 50.04 51.26 52.61 53.74 54.77 55.57 56.29 56.54 56.87 57.10 57.41 57.50 57.42 57.42 57.60 57.52 57.12 56.58 56.50 56.69
41.90 41.99 42.03 41.70 41.40 41.24 41.16 41.25 41.25 41.05 40.73 40.41 39.91 39.44 38.92 38.35 37.98 37.93 38.15 38.48 38.86 39.37 39.83 40.17 40.75 41.00 41.17 41.43 41.43 41.38 41.34 41.34 41.63 41.88 42.09 42.30 42.75 43.34 43.89 44.32 44.67 44.88 45.23 45.66 46.27 46.84 47.46 48.00 48.64 49.59 50.81 52.35 53.29 54.19 54.99 55.87 55.89 55.85 56.03 56.72 57.14 57.24 57.29 57.34 57.56 57.20 56.76 56.49 56.36
41.85 42.02 42.02 41.78 41.44 41.20 40.92 40.80 40.88 40.88 40.72 40.52 40.14 39.55 38.82 37.98 37.48 37.31 37.59 38.07 38.78 39.16 39.50 39.76 40.41 40.71 40.84 40.84 40.89 40.93 40.98 41.15 41.45 41.62 41.96 42.18 42.64 43.05 43.60 44.20 44.58 44.80 45.01 45.18 46.06 46.76 47.24 47.78 48.37 49.18 50.31 51.71 52.88 53.69 54.40 55.24 55.25 55.09 55.22 55.97 56.45 56.50 56.55 56.64 56.76 56.72 56.54 56.28 56.09
41.83 41.84 41.81 41.69 41.57 41.40 41.20 40.87 40.95 40.91 40.71 40.26 40.00 39.39 38.61 37.66 37.29 37.31 37.55 38.11 38.60 38.99 39.37 39.73 40.45 40.69 40.74 40.42 40.49 40.60 40.79 41.18 41.36 41.62 41.83 42.17 42.43 42.89 43.35 44.07 44.20 44.28 44.45 44.88 45.66 46.45 47.16 47.60 48.18 48.95 49.98 51.29 52.50 53.32 54.00 54.77 54.76 54.68 54.68 55.31 55.60 55.61 55.43 55.34 55.57 55.75 55.87 55.83 55.87
41.75 41.75 41.68 41.65 41.69 41.69 41.56 41.40 41.07 40.78 40.49 40.12 39.37 38.70 38.09 37.58 37.41 37.38 37.53 37.85 38.16 38.70 39.27 39.93 40.37 40.54 40.55 40.34 40.30 40.38 40.62 41.06 41.43 41.57 41.83 42.08 42.34 42.76 43.18 43.69 44.03 44.20 44.32 44.62 45.36 46.28 47.07 47.42 48.05 48.85 49.83 51.09 52.31 53.36 54.08 54.62 54.63 54.49 54.53 54.79 55.10 55.11 54.88 54.33 54.67 54.72 54.67 54.95 55.17
41.86 41.95 41.92 41.76 41.76 41.60 41.52 41.31 41.06 40.73 40.33 39.83 39.03 38.29 37.71 37.32 37.18 37.11 37.17 37.33 37.91 38.55 39.17 39.75 40.02 40.27 40.37 40.34 40.36 40.21 40.43 40.75 41.17 41.42 41.72 41.96 42.19 42.50 42.93 43.35 43.90 44.37 44.58 44.49 45.23 46.10 46.89 47.34 47.92 48.76 49.87 51.04 52.13 53.25 54.23 54.78 54.39 54.30 54.28 54.48 54.54 54.28 53.84 53.50 53.67 53.60 53.74 54.00 54.20
41.76 41.82 41.83 41.75 41.67 41.51 41.26 41.14 40.97 40.73 40.28 39.65 38.96 38.24 37.54 37.22 37.11 36.97 37.04 37.22 37.62 38.13 38.75 39.23 39.72 40.01 40.15 40.24 40.21 40.21 40.27 40.48 40.84 41.14 41.36 41.53 41.85 42.08 42.51 42.98 43.48 44.02 44.28 44.28 44.75 45.62 46.40 46.97 47.64 48.53 49.37 50.43 51.43 52.55 53.64 54.39 54.08 53.93 53.91 54.16 54.21 53.82 53.35 53.05 53.28 53.10 53.02 53.34 53.69
41.15 41.17 41.19 41.28 41.25 41.17 41.09 41.05 40.80 40.39 39.90 39.24 38.82 38.32 37.83 37.44 37.16 37.06 36.95 37.06 37.35 37.91 38.48 39.00 39.48 39.85 40.05 40.08 40.10 40.31 40.41 40.45 40.52 40.72 40.92 41.07 41.41 41.82 42.18 42.65 43.02 43.52 43.81 44.19 44.37 45.05 45.79 46.58 47.56 48.36 49.11 50.09 50.98 51.97 52.97 53.70 53.63 53.53 53.65 53.97 54.03 53.78 53.31 52.79 52.84 52.84 52.74 53.02 53.56
40.64 40.69 40.87 40.90 40.88 40.74 40.63 40.51 40.30 39.89 39.43 39.01 38.77 38.50 38.02 37.46 37.23 36.99 36.86 36.93 37.55 38.21 38.66 39.01 39.41 39.74 39.98 40.13 40.22 40.46 40.53 40.51 40.45 40.40 40.52 40.78 41.01 41.48 41.85 42.32 42.51 42.89 43.40 43.94 44.16 44.58 45.27 46.19 47.25 48.18 49.03 49.83 50.63 51.58 52.36 52.95 53.18 53.18 53.30 53.66 53.89 53.72 53.34 52.91 52.43 52.56 52.91 53.19 53.25
40.47 40.86 40.97 40.82 40.73 40.55 40.40 40.07 39.74 39.41 39.06 38.60 38.48 38.22 37.86 37.46 37.20 37.08 37.12 37.42 38.04 38.29 38.45 38.65 38.96 39.26 39.61 40.08 40.28 40.46 40.52 40.55 40.50 40.46 40.48 40.64 41.02 41.45 41.94 42.18 42.35 42.52 42.84 43.52 43.99 44.45 45.18 46.01 46.98 47.92 48.77 49.61 50.29 51.05 51.82 52.33 52.55 52.60 52.77 53.32 53.64 53.51 53.26 52.81 52.19 52.24 52.59 53.10 52.84
40.37 40.72 41.03 40.96 40.96 40.76 40.43 39.94 39.52 39.11 38.69 38.19 38.09 37.83 37.47 37.21 37.18 37.31 37.55 37.84 37.84 37.85 38.01 38.43 38.77 38.86 39.05 39.50 39.93 40.28 40.39 40.44 40.34 40.36 40.36 40.39 40.84 41.33 41.86 42.26 42.57 42.77 43.01 43.53 43.86 44.24 44.84 45.53 46.54 47.43 48.32 48.97 49.64 50.50 51.38 51.97 52.06 52.11 52.29 52.90 53.44 53.35 53.04 52.71 52.09 51.74 51.70 52.15 52.12
40.08 40.50 40.80 40.90 40.96 40.71 40.22 39.56 39.12 38.76 38.46 38.03 37.90 37.62 37.31 37.16 37.34 37.55 37.71 37.78 37.68 37.81 38.01 38.50 38.72 38.68 38.68 38.74 39.23 39.60 39.93 40.37 40.30 40.21 40.17 40.26 40.67 41.11 41.60 42.18 42.54 42.86 43.30 43.65 43.77 44.03 44.37 45.10 45.75 46.67 47.47 48.10 48.77 49.81 50.83 51.46 51.70 51.66 51.75 52.46 52.90 52.98 52.80 52.76 51.85 51.23 50.89 51.08 51.18
39.96 40.12 40.29 40.59 40.64 40.35 39.86 39.29 38.76 38.42 38.13 37.93 37.98 37.88 37.58 37.39 37.59 37.79 37.73 37.61 37.68 37.83 38.04 38.52 38.64 38.51 38.34 38.32 38.77 39.17 39.54 40.18 40.27 40.18 39.95 40.11 40.41 40.58 41.06 41.64 42.30 42.74 43.01 43.31 43.48 43.69 44.11 44.67 45.61 46.23 46.67 47.11 47.93 48.99 49.98 50.54 50.84 51.01 51.11 51.55 52.11 52.31 52.32 52.37 51.59 50.83 50.21 49.91 50.28
39.67 39.72 39.79 40.09 40.09 39.84 39.39 39.03 38.68 38.35 38.12 37.90 38.05 37.97 37.72 37.61 37.86 37.92 37.84 37.69 37.73 37.84 37.98 38.11 38.23 38.23 38.19 38.35 38.64 38.93 39.28 39.81 40.19 40.32 40.26 40.17 40.22 40.22 40.48 41.10 41.91 42.43 42.73 42.90 43.27 43.48 43.77 44.07 44.88 45.53 46.01 46.41 47.19 48.15 48.93 49.62 50.18 50.29 50.43 50.65 50.98 51.33 51.66 51.66 51.32 50.75 50.00 49.37 49.78
39.11 39.35 39.54 39.54 39.41 39.22 38.99 38.89 38.66 38.46 38.23 38.03 38.01 38.03 37.90 37.68 38.01 38.09 37.96 37.74 37.81 37.81 37.81 37.60 37.68 37.93 38.23 38.45 38.61 38.90 39.14 39.38 39.81 40.05 40.21 40.31 40.38 40.32 40.40 40.87 41.60 42.21 42.60 42.85 43.02 43.27 43.52 43.69 44.24 44.84 45.40 46.06 46.85 47.69 48.48 49.07 49.33 49.47 49.65 49.73 49.93 50.26 50.66 50.78 50.67 50.39 50.00 49.46 49.55
38.89 39.15 39.30 39.26 38.97 38.76 38.56 38.61 38.52 38.42 38.26 38.02 38.05 38.12 38.03 37.78 37.92 37.90 37.85 37.56 37.66 37.69 37.68 37.47 37.51 37.77 38.15 38.50 38.62 38.82 38.98 39.11 39.34 39.54 39.85 40.11 40.31 40.53 40.66 40.82 41.36 41.94 42.33 42.64 42.77 43.15 43.48 43.48 43.98 44.62 45.23 45.71 46.36 47.07 47.79 48.44 48.55 48.50 48.50 48.58 48.67 48.96 49.39 49.96 49.86 49.92 49.82 49.55 49.51
38.77 38.95 39.23 39.22 38.90 38.63 38.48 38.44 38.50 38.44 38.36 38.24 38.24 38.17 38.06 37.87 37.67 37.56 37.49 37.43 37.36 37.35 37.39 37.51 37.63 37.73 37.86 38.19 38.50 38.62 38.82 38.86 39.11 39.37 39.65 40.06 40.40 40.60 40.78 40.86 41.35 41.60 41.88 41.90 42.25 42.68 42.97 43.09 43.69 44.41 45.01 45.36 45.75 46.27 46.85 47.38 47.59 47.63 47.49 47.23 47.19 47.23 47.62 48.44 48.71 49.11 49.27 49.13 49.22
38.50 38.85 39.12 39.10 38.95 38.79 38.65 38.63 38.58 38.58 38.56 38.58 38.45 38.29 38.11 37.82 37.30 37.06 37.08 37.27 37.19 37.02 37.01 37.38 37.59 37.71 37.68 37.76 38.15 38.53 38.78 38.82 39.13 39.48 39.82 40.34 40.54 40.65 40.76 40.86 41.22 41.49 41.53 41.59 41.74 42.03 42.33 42.75 43.47 44.20 44.80 45.18 45.40 45.62 45.88 46.14 46.54 46.71 46.75 46.36 46.01 45.92 46.10 46.74 47.41 47.87 48.18 48.29 48.55
38.03 38.50 38.84 38.97 38.98 38.97 38.88 38.77 38.81 38.83 38.88 38.88 38.76 38.63 38.26 37.65 37.04 36.67 36.56 36.77 36.94 36.94 36.82 36.99 37.37 37.62 37.82 37.77 38.10 38.37 38.79 38.92 39.35 39.81 40.20 40.64 40.70 40.76 40.80 40.98 41.36 41.43 41.36 41.34 41.69 41.99 42.25 42.63 43.39 44.02 44.62 44.79 44.88 44.96 45.05 45.22 45.53 45.88 45.97 45.66 45.44 45.36 45.40 45.57 45.92 46.41 46.80 47.23 47.70
37.61 37.97 38.34 38.79 38.93 39.02 38.95 38.89 38.97 38.89 38.90 38.79 38.80 38.54 38.10 37.48 36.89 36.49 36.25 36.39 36.79 36.87 36.87 36.94 37.12 37.34 37.59 37.78 37.99 38.37 38.66 39.00 39.27 39.84 40.41 40.83 40.90 40.85 40.89 41.11 41.51 41.56 41.45 41.25 41.60 41.99 42.46 42.88 43.47 44.06 44.36 44.39 44.22 44.22 44.44 44.65 44.83 45.13 45.27 45.27 45.23 45.36 45.35 45.27 45.17 45.39 45.88 46.41 46.79
37.42 37.78 38.22 38.53 38.80 38.96 39.08 39.17 38.98 38.90 38.73 38.60 38.43 38.13 37.79 37.14 36.58 36.38 36.43 36.50 36.81 36.81 36.76 36.73 36.89 37.02 37.28 37.59 37.78 38.20 38.77 39.16 39.48 39.97 40.46 40.78 40.95 41.04 41.21 41.34 41.60 41.83 41.70 41.19 41.52 41.92 42.30 42.84 43.51 44.06 44.31 44.13 43.73 43.73 44.00 44.30 44.38 44.51 44.65 45.09 45.22 45.27 45.44 45.70 45.52 45.57 45.92 46.41 46.40
37.62 37.91 38.16 38.39 38.57 38.80 38.97 39.14 38.90 38.58 38.32 38.14 38.02 37.78 37.34 36.89 36.40 36.25 36.38 36.65 36.68 36.71 36.68 36.76 36.95 37.08 37.31 37.66 37.80 38.23 38.79 39.35 40.04 40.50 40.66 40.83 40.92 41.27 41.57 41.61 41.69 41.69 41.70 41.43 41.60 41.90 42.29 42.88 43.55 44.06 44.09 43.77 43.47 43.43 43.60 43.94 44.06 44.09 44.18 44.59 44.95 45.00 45.22 46.10 46.05 46.23 46.50 46.54 46.58
37.67 37.85 38.01 38.19 38.30 38.35 38.29 38.42 38.39 38.10 37.87 37.65 37.57 37.24 36.86 36.39 36.30 36.33 36.45 36.42 36.52 36.62 36.77 37.12 37.40 37.70 37.85 38.16 38.37 38.60 38.89 39.36 40.08 40.66 41.00 41.22 41.32 41.67 41.80 41.80 41.69 41.46 41.37 41.32 41.81 42.25 42.63 43.04 43.80 44.10 43.87 43.55 43.25 43.17 43.25 43.46 43.62 43.78 43.95 44.08 44.46 44.74 45.05 45.92 46.14 46.32 46.54 46.93 47.11
37.69 37.69 37.69 37.68 37.77 37.76 37.80 37.95 37.88 37.66 37.39 37.25 37.27 36.97 36.53 36.33 36.32 36.33 36.33 36.22 36.40 36.67 37.01 37.37 37.81 38.16 38.42 38.69 38.84 38.86 38.94 38.98 39.75 40.45 41.05 41.45 41.58 41.84 41.93 41.92 41.69 41.52 41.52 41.81 42.45 42.90 43.40 43.63 44.03 44.16 43.86 43.42 43.16 43.11 43.10 43.27 43.47 43.64 43.77 43.90 44.19 44.51 44.96 45.49 45.49 45.88 46.45 46.75 47.15
37.52 37.44 37.24 37.09 37.03 37.09 37.20 37.33 37.19 37.08 37.00 36.98 37.01 36.90 36.57 36.23 36.05 35.96 35.98 36.05 36.41 36.71 37.13 37.58 38.01 38.33 38.48 38.82 38.85 38.96 39.06 39.06 39.48 40.06 40.83 41.22 41.53 41.71 41.88 41.69 41.78 41.87 42.09 42.44 42.90 43.36 43.93 44.49 44.67 44.49 44.05 43.57 43.18 43.01 43.09 43.26 43.42 43.47 43.51 43.65 43.96 44.32 44.65 44.79 44.53 44.92 45.40 45.44 45.79
37.14 37.00 36.85 36.74 36.58 36.48 36.52 36.65 36.76 36.78 36.79 36.91 36.75 36.55 36.24 35.98 35.59 35.50 35.57 35.76 36.19 36.68 37.08 37.54 37.97 38.35 38.61 38.69 38.76 38.88 39.03 39.23 39.55 40.01 40.47 40.92 41.40 41.71 41.71 41.78 42.08 42.30 42.60 42.79 43.17 43.80 44.38 45.13 45.52 45.29 44.67 43.87 43.34 43.02 42.98 43.20 43.22 43.26 43.35 43.62 43.91 44.14 44.06 43.97 43.61 43.76 44.04 44.14 44.57
36.66 36.55 36.47 36.50 36.22 36.16 36.12 36.35 36.42 36.42 36.49 36.69 36.66 36.60 36.43 36.04 35.44 35.29 35.40 35.61 36.08 36.48 37.04 37.43 37.91 38.39 38.74 38.73 38.67 38.67 38.80 39.17 39.53 39.85 40.06 40.34 40.84 41.02 41.17 41.61 42.12 42.57 42.83 43.16 43.57 44.20 44.77 45.48 46.01 45.96 45.34 44.30 43.77 43.42 43.23 43.31 42.91 42.86 43.16 43.65 43.65 43.60 43.60 43.37 43.18 43.06 43.09 43.29 44.04
36.16 36.09 36.03 36.03 35.86 35.86 36.01 36.31 36.33 36.45 36.55 36.74 36.79 36.74 36.55 36.20 35.58 35.22 35.25 35.48 35.89 36.30 36.80 37.39 38.08 38.60 38.88 38.92 38.69 38.69 38.76 38.97 39.24 39.50 39.89 40.40 40.59 40.91 41.37 41.84 42.25 42.58 43.02 43.39 43.93 44.41 45.03 45.56 46.14 46.23 45.74 44.56 43.94 43.46 43.12 42.93 42.59 42.62 43.04 43.21 42.77 42.78 43.00 43.26 42.81 42.59 42.60 42.94 43.32
35.98 35.76 35.59 35.36 35.45 35.58 35.77 36.10 36.28 36.37 36.45 36.55 36.51 36.41 36.17 35.83 35.28 34.96 34.97 35.20 35.61 35.99 36.68 37.39 38.07 38.37 38.60 38.58 38.63 38.71 38.77 38.80 39.00 39.33 39.84 40.23 40.68 41.11 41.66 42.19 42.30 42.55 43.08 43.70 44.14 44.67 45.07 45.47 46.01 46.27 45.83 44.62 43.89 43.48 43.10 42.67 42.41 42.30 42.28 42.05 41.91 42.17 42.44 42.26 42.00 41.99 42.17 42.58 42.83
35.85 35.43 35.05 34.67 34.94 35.11 35.31 35.48 35.85 35.99 36.06 36.00 35.85 35.73 35.51 34.98 34.52 34.48 34.57 34.86 35.37 36.05 36.88 37.59 38.00 37.98 37.92 38.18 38.29 38.52 38.68 38.96 39.20 39.51 39.93 40.30 40.65 41.09 41.70 42.32 42.37 42.76 43.38 44.06 44.54 44.85 45.12 45.56 46.14 46.18 45.56 44.26 43.40 42.99 42.63 42.33 42.15 41.96 41.68 41.28 40.91 41.18 41.54 41.35 41.27 41.49 41.90 42.39 42.48
35.67 35.25 34.86 34.48 34.46 34.67 34.96 35.30 35.40 35.42 35.36 35.19 35.35 35.03 34.61 34.16 34.05 34.31 34.72 35.19 35.79 36.51 37.27 37.80 37.77 37.57 37.67 38.19 38.42 38.58 38.70 39.01 39.43 39.72 39.93 40.06 40.47 41.14 41.86 42.30 42.58 43.19 43.91 44.54 44.81 45.07 45.43 46.01 46.14 45.69 44.84 43.73 42.73 42.13 41.68 41.25 41.11 40.92 40.59 40.18 39.91 39.83 40.01 40.28 40.64 41.09 41.50 42.13 42.17
35.56 35.15 34.66 34.14 34.14 34.39 34.82 35.06 35.01 34.96 34.80 34.43 34.49 34.40 34.14 33.80 34.16 34.74 35.38 35.92 36.29 36.58 36.88 37.18 37.22 37.32 37.67 38.17 38.45 38.56 38.76 38.87 39.14 39.62 40.14 40.59 41.13 41.54 42.08 42.30 42.83 43.58 44.17 44.58 44.85 45.38 45.78 46.09 45.51 44.80 43.81 42.87 41.96 41.06 40.39 39.99 39.71 39.39 39.24 39.21 39.54 39.76 39.98 40.07 40.37 40.82 41.23 41.69 41.96
35.56 35.15 34.56 34.08 34.08 34.35 34.59 34.80 34.73 34.47 34.29 33.87 33.55 33.72 33.88 33.65 34.22 34.76 35.30 35.90 36.22 36.42 36.42 36.63 36.76 37.04 37.37 37.74 37.92 38.20 38.37 38.55 38.89 39.47 40.16 40.90 41.43 41.66 41.83 42.23 43.04 43.80 44.48 45.06 45.51 45.73 45.78 45.29 44.53 43.68 42.65 41.66 40.62 39.83 39.52 39.44 39.22 39.12 39.01 38.94 39.21 39.62 40.02 40.16 40.28 40.55 40.87 41.03 41.28
35.63 35.06 34.51 34.14 34.12 34.31 34.50 34.73 34.53 34.26 33.85 33.25 32.97 33.28 33.60 33.66 33.85 34.20 34.83 35.78 36.20 36.37 36.58 36.80 36.91 37.18 37.54 37.77 37.92 37.89 38.00 38.31 38.88 39.53 40.27 41.29 41.91 42.03 42.16 42.66 43.87 44.65 45.10 45.46 45.55 45.33 44.84 44.17 43.41 42.51 41.57 40.68 39.94 39.62 39.44 39.31 39.13 38.85 38.65 38.69 38.92 39.12 39.36 39.46 39.85 40.04 40.36 40.77 40.97
35.62 35.03 34.36 34.12 34.14 34.24 34.42 34.56 34.43 34.08 33.43 32.68 32.59 32.77 33.22 33.62 33.71 34.17 34.85 35.76 36.23 36.40 36.57 36.80 37.25 37.53 37.80 37.99 38.10 37.97 37.91 37.81 38.31 39.15 40.26 41.89 42.79 42.98 43.02 43.47 44.33 44.65 44.71 44.67 44.44 44.13 43.68 43.09 42.42 41.61 40.72 40.00 39.53 39.38 39.25 39.08 38.76 38.61 38.57 38.84 38.98 39.01 39.13 39.50 39.76 40.15 40.59 40.91 41.22
35.81 35.01 34.33 34.05 34.04 34.14 34.27 34.35 34.12 33.61 33.02 32.32 32.30 32.54 33.06 33.67 34.17 34.77 35.39 35.90 36.02 35.97 36.02 36.38 36.84 37.16 37.43 37.70 37.80 37.80 37.68 37.41 37.92 38.98 40.38 42.16 43.02 42.98 42.58 42.40 42.81 43.10 43.38 43.47 43.29 43.01 42.65 42.15 41.43 40.76 40.09 39.49 39.33 39.42 39.38 39.25 38.88 38.58 38.53 38.57 38.57 38.90 39.29 39.61 40.01 40.53 40.93 41.16 41.31
36.23 35.34 34.57 34.05 33.93 33.95 34.06 34.12 33.75 33.15 32.49 32.11 32.34 32.72 33.17 33.74 34.37 35.06 35.64 35.97 35.59 35.41 35.51 35.88 36.24 36.51 36.74 37.02 37.25 37.29 37.37 37.41 37.79 38.73 40.02 41.44 41.91 41.86 41.59 41.46 41.78 42.16 42.36 42.59 42.44 42.12 41.84 41.31 40.72 40.10 39.60 39.35 39.38 39.47 39.51 39.51 39.33 39.12 38.98 38.98 38.98 39.31 39.74 40.18 40.36 40.52 40.68 40.70 40.76
36.56 36.01 35.29 34.43 34.02 33.82 33.89 33.89 33.36 32.81 32.28 32.11 32.63 33.21 33.67 34.09 34.43 35.04 35.57 35.78 35.31 35.15 35.21 35.64 35.78 36.06 36.38 36.87 36.96 37.02 37.07 37.25 37.73 38.40 39.21 40.23 41.04 41.32 41.15 40.92 41.05 41.43 41.81 41.92 41.78 41.55 41.14 40.78 40.24 39.71 39.34 39.13 39.26 39.30 39.38 39.25 39.26 39.17 39.03 39.03 39.25 39.50 39.92 40.23 40.30 40.16 39.95 39.94 39.98
36.49 36.43 35.91 34.97 34.29 33.87 33.72 33.59 33.12 32.73 32.41 32.42 32.87 33.40 33.89 34.23 34.58 35.14 35.62 35.78 35.54 35.27 35.09 35.26 35.54 35.87 36.24 36.70 36.69 36.62 36.65 36.99 37.30 37.83 38.53 39.19 40.14 40.70 40.94 40.84 40.96 41.24 41.47 41.46 41.37 41.11 40.83 40.43 39.90 39.50 39.23 39.01 39.09 39.17 39.17 38.82 38.70 38.52 38.55 38.68 39.05 39.47 39.88 40.24 40.04 39.76 39.61 39.47 39.64
36.26 36.27 36.10 35.55 34.65 34.00 33.57 33.37 33.13 32.96 32.82 32.84 32.99 33.35 33.82 34.29 34.81 35.32 35.80 35.97 35.77 35.36 35.08 34.99 35.31 35.68 36.04 36.42 36.32 36.15 36.21 36.66 36.85 37.25 37.74 38.31 39.27 39.91 40.47 40.79 41.04 41.16 41.25 41.31 41.10 40.84 40.57 40.22 39.78 39.47 39.24 39.11 39.40 39.37 39.29 38.92 38.40 38.02 37.95 38.31 38.63 39.03 39.34 39.86 40.09 40.10 39.90 39.97 40.12
35.99 36.05 35.83 35.58 34.91 34.27 33.74 33.38 33.11 33.17 33.26 33.26 33.28 33.63 34.18 34.77 34.94 35.15 35.30 35.35 35.31 35.16 35.00 35.09 35.22 35.40 35.62 35.95 35.98 35.87 35.76 36.07 36.47 36.76 37.02 37.28 38.08 38.87 39.58 40.27 40.72 41.06 41.22 41.26 40.96 40.83 40.53 40.22 39.82 39.46 39.27 39.07 39.41 39.65 39.73 39.49 38.63 38.01 37.79 38.03 38.31 38.47 38.76 39.25 39.93 40.34 40.62 40.67 40.77
MSLP
1015.43 1015.31 1015.27 1015.19 1015.15 1015.11 1014.99 1014.83 1014.71 1014.63 1014.55 1014.47 1014.35 1014.27 1014.23 1014.11 1013.99 1013.83 1013.71 1013.55 1013.43 1013.23 1013.03 1012.87 1012.75 1012.63 1012.51 1012.39 1012.27 1012.15 1011.99 1011.79 1011.59 1011.43 1011.27 1011.11 1010.95 1010.75 1010.59 1010.43 1010.19 1009.99 1009.79 1009.55 1009.27 1009.07 1008.83 1008.59 1008.39 1008.15 1007.83 1007.55 1007.35 1007.15 1006.91 1006.71 1006.43 1006.15 1005.83 1005.55 1005.27 1005.15 1005.11 1005.15 1005.15 1005.11 1004.99 1004.79 1004.63
1015.27 1015.15 1015.15 1015.15 1015.11 1015.03 1014.91 1014.75 1014.63 1014.55 1014.47 1014.43 1014.31 1014.27 1014.23 1014.15 1014.07 1013.91 1013.75 1013.59 1013.47 1013.31 1013.15 1012.91 1012.83 1012.71 1012.55 1012.43 1012.31 1012.19 1011.99 1011.83 1011.59 1011.39 1011.19 1010.99 1010.87 1010.71 1010.55 1010.31 1010.11 1009.91 1009.71 1009.51 1009.27 1008.99 1008.75 1008.55 1008.35 1008.11 1007.83 1007.55 1007.31 1007.07 1006.79 1006.55 1006.43 1006.19 1005.91 1005.59 1005.35 1005.19 1005.15 1005.23 1005.19 1005.11 1004.95 1004.75 1004.55
1015.15 1015.07 1014.99 1014.99 1014.95 1014.87 1014.75 1014.67 1014.51 1014.43 1014.39 1014.31 1014.27 1014.27 1014.27 1014.23 1014.11 1013.95 1013.79 1013.63 1013.47 1013.31 1013.15 1012.95 1012.75 1012.67 1012.55 1012.43 1012.31 1012.19 1012.03 1011.83 1011.59 1011.35 1011.11 1010.91 1010.71 1010.55 1010.39 1010.19 1009.99 1009.83 1009.67 1009.47 1009.23 1008.99 1008.71 1008.55 1008.35 1008.11 1007.83 1007.59 1007.27 1006.99 1006.71 1006.47 1006.39 1006.23 1006.03 1005.75 1005.55 1005.43 1005.43 1005.43 1005.31 1005.15 1004.95 1004.75 1004.55
1015.11 1014.99 1014.91 1014.79 1014.71 1014.67 1014.59 1014.51 1014.43 1014.35 1014.27 1014.27 1014.27 1014.23 1014.19 1014.15 1014.11 1013.95 1013.79 1013.59 1013.43 1013.27 1013.11 1012.87 1012.71 1012.59 1012.55 1012.43 1012.27 1012.11 1011.95 1011.75 1011.55 1011.27 1011.03 1010.83 1010.63 1010.43 1010.27 1010.11 1009.87 1009.71 1009.55 1009.39 1009.15 1008.91 1008.71 1008.51 1008.31 1008.07 1007.83 1007.55 1007.27 1006.95 1006.67 1006.43 1006.35 1006.27 1006.15 1005.91 1005.75 1005.67 1005.63 1005.55 1005.43 1005.23 1004.99 1004.79 1004.59
1014.95 1014.87 1014.79 1014.67 1014.55 1014.51 1014.43 1014.43 1014.35 1014.27 1014.23 1014.23 1014.19 1014.15 1014.07 1014.07 1013.99 1013.83 1013.71 1013.55 1013.31 1013.11 1012.95 1012.87 1012.71 1012.59 1012.47 1012.35 1012.15 1011.99 1011.79 1011.59 1011.43 1011.19 1010.95 1010.71 1010.55 1010.35 1010.15 1009.99 1009.79 1009.59 1009.43 1009.27 1009.07 1008.87 1008.59 1008.43 1008.23 1007.99 1007.71 1007.47 1007.15 1006.87 1006.55 1006.43 1006.35 1006.27 1006.15 1005.99 1005.87 1005.83 1005.79 1005.71 1005.55 1005.27 1004.99 1004.71 1004.55
1014.83 1014.71 1014.67 1014.59 1014.51 1014.39 1014.31 1014.31 1014.23 1014.19 1014.15 1014.15 1014.07 1014.03 1013.99 1013.95 1013.83 1013.71 1013.55 1013.43 1013.23 1013.03 1012.87 1012.83 1012.67 1012.51 1012.35 1012.19 1011.99 1011.83 1011.59 1011.43 1011.27 1011.07 1010.87 1010.63 1010.43 1010.23 1009.99 1009.83 1009.63 1009.47 1009.27 1009.15 1008.95 1008.75 1008.55 1008.39 1008.11 1007.83 1007.59 1007.39 1007.07 1006.75 1006.51 1006.39 1006.27 1006.19 1006.07 1005.91 1005.83 1005.83 1005.79 1005.71 1005.51 1005.27 1004.91 1004.55 1004.43
1014.75 1014.63 1014.55 1014.43 1014.39 1014.27 1014.23 1014.15 1014.11 1014.07 1014.03 1013.99 1013.91 1013.83 1013.83 1013.75 1013.71 1013.59 1013.47 1013.31 1013.15 1012.99 1012.83 1012.71 1012.51 1012.31 1012.15 1011.99 1011.83 1011.67 1011.47 1011.27 1011.11 1010.91 1010.71 1010.51 1010.31 1010.11 1009.87 1009.71 1009.47 1009.27 1009.15 1008.95 1008.79 1008.59 1008.43 1008.23 1007.99 1007.71 1007.47 1007.19 1006.95 1006.67 1006.43 1006.27 1006.19 1006.15 1005.99 1005.79 1005.71 1005.71 1005.63 1005.51 1005.35 1005.15 1004.79 1004.47 1004.35
1014.71 1014.59 1014.47 1014.35 1014.27 1014.19 1014.07 1013.99 1013.99 1013.91 1013.83 1013.75 1013.71 1013.67 1013.63 1013.59 1013.55 1013.47 1013.35 1013.23 1013.07 1012.87 1012.71 1012.55 1012.35 1012.19 1012.03 1011.87 1011.71 1011.55 1011.35 1011.15 1010.99 1010.83 1010.63 1010.43 1010.23 1009.99 1009.79 1009.55 1009.39 1009.15 1008.99 1008.83 1008.71 1008.51 1008.31 1008.11 1007.87 1007.59 1007.27 1007.03 1006.79 1006.55 1006.31 1006.15 1006.07 1005.99 1005.87 1005.67 1005.55 1005.47 1005.43 1005.31 1005.19 1004.99 1004.71 1004.51 1004.39
1014.59 1014.51 1014.43 1014.31 1014.23 1014.15 1013.99 1013.91 1013.83 1013.79 1013.71 1013.59 1013.55 1013.51 1013.47 1013.43 1013.43 1013.31 1013.23 1013.07 1012.87 1012.71 1012.55 1012.35 1012.15 1012.03 1011.87 1011.71 1011.55 1011.39 1011.23 1011.07 1010.87 1010.71 1010.51 1010.35 1010.15 1009.91 1009.71 1009.51 1009.35 1009.15 1008.91 1008.75 1008.59 1008.43 1008.23 1007.99 1007.75 1007.43 1007.15 1006.95 1006.67 1006.43 1006.19 1006.07 1005.95 1005.87 1005.75 1005.55 1005.43 1005.27 1005.19 1005.15 1004.99 1004.87 1004.71 1004.59 1004.51
1014.43 1014.35 1014.27 1014.19 1014.11 1013.99 1013.95 1013.83 1013.75 1013.67 1013.55 1013.47 1013.39 1013.35 1013.35 1013.31 1013.27 1013.15 1013.03 1012.87 1012.71 1012.55 1012.39 1012.19 1012.03 1011.83 1011.71 1011.51 1011.39 1011.27 1011.15 1010.99 1010.75 1010.55 1010.43 1010.27 1010.07 1009.83 1009.63 1009.47 1009.27 1009.07 1008.87 1008.71 1008.51 1008.31 1008.07 1007.83 1007.55 1007.27 1007.03 1006.83 1006.59 1006.35 1006.15 1005.99 1005.83 1005.79 1005.71 1005.51 1005.31 1005.15 1005.03 1004.95 1004.91 1004.83 1004.71 1004.63 1004.59
1014.31 1014.19 1014.15 1014.03 1013.91 1013.83 1013.83 1013.71 1013.63 1013.51 1013.43 1013.31 1013.27 1013.23 1013.19 1013.15 1013.07 1012.99 1012.87 1012.75 1012.55 1012.35 1012.19 1012.07 1011.91 1011.71 1011.51 1011.35 1011.23 1011.11 1010.99 1010.87 1010.67 1010.47 1010.27 1010.07 1009.87 1009.71 1009.55 1009.35 1009.15 1008.99 1008.79 1008.63 1008.43 1008.19 1007.95 1007.67 1007.39 1007.15 1006.91 1006.71 1006.51 1006.31 1006.11 1005.91 1005.75 1005.71 1005.59 1005.43 1005.27 1005.11 1004.95 1004.87 1004.83 1004.79 1004.71 1004.67 1004.59
1014.19 1014.11 1013.99 1013.91 1013.83 1013.75 1013.71 1013.59 1013.47 1013.35 1013.23 1013.15 1013.07 1013.07 1013.03 1012.99 1012.87 1012.79 1012.71 1012.55 1012.35 1012.15 1011.99 1011.87 1011.75 1011.59 1011.43 1011.23 1011.07 1010.91 1010.79 1010.67 1010.55 1010.39 1010.15 1009.91 1009.71 1009.55 1009.39 1009.19 1008.99 1008.83 1008.63 1008.47 1008.27 1008.03 1007.79 1007.51 1007.27 1007.03 1006.83 1006.63 1006.43 1006.27 1006.07 1005.87 1005.71 1005.59 1005.55 1005.43 1005.27 1005.07 1004.95 1004.87 1004.79 1004.79 1004.75 1004.71 1004.59
1014.11 1013.99 1013.83 1013.75 1013.71 1013.63 1013.55 1013.43 1013.27 1013.15 1012.99 1012.91 1012.87 1012.87 1012.83 1012.75 1012.71 1012.59 1012.47 1012.31 1012.15 1011.99 1011.83 1011.71 1011.63 1011.51 1011.35 1011.15 1010.99 1010.79 1010.67 1010.51 1010.35 1010.19 1009.99 1009.75 1009.59 1009.43 1009.23 1008.99 1008.79 1008.55 1008.39 1008.27 1008.07 1007.91 1007.71 1007.43 1007.27 1007.07 1006.87 1006.55 1006.43 1006.23 1006.03 1005.83 1005.63 1005.51 1005.43 1005.39 1005.23 1005.03 1004.91 1004.83 1004.83 1004.83 1004.83 1004.79 1004.71
1013.95 1013.83 1013.71 1013.59 1013.55 1013.43 1013.35 1013.23 1013.11 1012.95 1012.83 1012.71 1012.67 1012.63 1012.59 1012.51 1012.43 1012.39 1012.23 1012.07 1011.95 1011.79 1011.67 1011.55 1011.47 1011.35 1011.19 1011.07 1010.87 1010.71 1010.51 1010.35 1010.15 1009.99 1009.79 1009.63 1009.47 1009.27 1009.07 1008.83 1008.55 1008.39 1008.19 1008.07 1007.95 1007.79 1007.63 1007.43 1007.27 1007.03 1006.79 1006.55 1006.35 1006.15 1005.99 1005.79 1005.55 1005.43 1005.31 1005.31 1005.15 1004.99 1004.91 1004.87 1004.87 1004.87 1004.87 1004.87 1004.79
1013.79 1013.67 1013.55 1013.47 1013.39 1013.27 1013.15 1013.03 1012.91 1012.75 1012.63 1012.55 1012.47 1012.43 1012.43 1012.31 1012.23 1012.15 1012.03 1011.87 1011.75 1011.63 1011.55 1011.43 1011.31 1011.15 1011.03 1010.95 1010.75 1010.55 1010.35 1010.19 1009.99 1009.79 1009.59 1009.43 1009.27 1009.15 1008.91 1008.67 1008.43 1008.27 1008.07 1007.91 1007.79 1007.67 1007.55 1007.43 1007.23 1006.99 1006.75 1006.51 1006.31 1006.15 1005.95 1005.75 1005.55 1005.39 1005.27 1005.19 1005.15 1005.03 1004.99 1004.95 1004.95 1004.95 1004.91 1004.91 1004.87
1013.67 1013.55 1013.43 1013.35 1013.23 1013.11 1012.99 1012.87 1012.71 1012.55 1012.43 1012.35 1012.27 1012.23 1012.19 1012.15 1012.03 1011.95 1011.87 1011.75 1011.63 1011.55 1011.43 1011.31 1011.15 1010.99 1010.87 1010.71 1010.55 1010.43 1010.23 1009.99 1009.79 1009.55 1009.39 1009.19 1009.03 1008.91 1008.79 1008.55 1008.35 1008.15 1007.95 1007.79 1007.67 1007.55 1007.43 1007.27 1007.15 1006.95 1006.71 1006.47 1006.27 1006.07 1005.87 1005.71 1005.51 1005.31 1005.19 1005.15 1005.11 1005.11 1005.07 1004.99 1004.99 1004.95 1004.91 1004.91 1004.91
1013.47 1013.35 1013.27 1013.15 1012.99 1012.87 1012.79 1012.67 1012.51 1012.35 1012.27 1012.15 1012.07 1012.03 1011.99 1011.95 1011.87 1011.79 1011.71 1011.67 1011.55 1011.43 1011.27 1011.15 1010.99 1010.87 1010.71 1010.47 1010.35 1010.23 1010.07 1009.83 1009.59 1009.39 1009.19 1008.99 1008.87 1008.71 1008.59 1008.43 1008.23 1008.03 1007.87 1007.71 1007.55 1007.35 1007.23 1007.11 1006.95 1006.79 1006.59 1006.39 1006.15 1005.99 1005.79 1005.63 1005.43 1005.27 1005.15 1005.07 1005.11 1005.15 1005.19 1005.15 1005.07 1004.99 1004.91 1004.91 1004.91
1013.27 1013.15 1013.03 1012.95 1012.83 1012.71 1012.55 1012.47 1012.35 1012.23 1012.15 1011.99 1011.95 1011.91 1011.83 1011.83 1011.79 1011.71 1011.67 1011.55 1011.47 1011.27 1011.11 1010.95 1010.87 1010.71 1010.55 1010.35 1010.19 1010.07 1009.87 1009.67 1009.43 1009.23 1008.99 1008.87 1008.71 1008.55 1008.43 1008.27 1008.15 1007.99 1007.79 1007.59 1007.39 1007.19 1007.03 1006.91 1006.75 1006.59 1006.43 1006.23 1006.03 1005.87 1005.71 1005.59 1005.39 1005.23 1005.11 1005.07 1005.11 1005.19 1005.27 1005.27 1005.15 1004.99 1004.91 1004.87 1004.87
1013.11 1012.99 1012.83 1012.71 1012.55 1012.47 1012.39 1012.31 1012.23 1012.15 1012.03 1011.95 1011.87 1011.79 1011.71 1011.75 1011.71 1011.71 1011.59 1011.47 1011.35 1011.19 1011.03 1010.87 1010.71 1010.55 1010.35 1010.19 1010.03 1009.87 1009.71 1009.51 1009.31 1009.11 1008.91 1008.71 1008.55 1008.43 1008.27 1008.15 1007.99 1007.83 1007.59 1007.43 1007.23 1007.07 1006.91 1006.75 1006.55 1006.39 1006.19 1006.07 1005.91 1005.79 1005.67 1005.51 1005.35 1005.19 1005.07 1005.03 1005.11 1005.19 1005.27 1005.27 1005.19 1005.07 1004.95 1004.91 1004.87
1012.95 1012.79 1012.63 1012.47 1012.35 1012.27 1012.19 1012.15 1012.03 1011.99 1011.91 1011.83 1011.79 1011.71 1011.63 1011.63 1011.67 1011.59 1011.47 1011.35 1011.23 1011.07 1010.91 1010.71 1010.55 1010.35 1010.19 1010.03 1009.87 1009.75 1009.59 1009.43 1009.19 1008.99 1008.75 1008.59 1008.43 1008.27 1008.07 1007.95 1007.83 1007.63 1007.43 1007.27 1007.11 1006.91 1006.75 1006.55 1006.35 1006.15 1005.99 1005.87 1005.75 1005.67 1005.55 1005.39 1005.27 1005.15 1005.03 1005.03 1005.11 1005.19 1005.27 1005.27 1005.15 1005.07 1004.99 1004.95 1004.95
1012.75 1012.59 1012.43 1012.27 1012.15 1012.07 1011.99 1011.95 1011.87 1011.83 1011.79 1011.71 1011.67 1011.55 1011.51 1011.47 1011.47 1011.43 1011.31 1011.19 1011.07 1010.95 1010.79 1010.55 1010.39 1010.23 1010.03 1009.83 1009.71 1009.55 1009.43 1009.23 1008.99 1008.79 1008.55 1008.43 1008.27 1008.07 1007.87 1007.75 1007.59 1007.43 1007.27 1007.11 1006.95 1006.75 1006.55 1006.39 1006.15 1005.99 1005.83 1005.71 1005.63 1005.55 1005.43 1005.27 1005.15 1005.07 1005.03 1005.03 1005.07 1005.19 1005.27 1005.19 1005.11 1005.03 1004.99 1004.99 1004.99
1012.59 1012.43 1012.27 1012.15 1011.99 1011.91 1011.83 1011.75 1011.71 1011.71 1011.67 1011.55 1011.51 1011.43 1011.39 1011.27 1011.27 1011.19 1011.11 1010.99 1010.87 1010.71 1010.55 1010.39 1010.23 1010.07 1009.87 1009.71 1009.55 1009.35 1009.15 1008.99 1008.83 1008.63 1008.43 1008.27 1008.07 1007.83 1007.71 1007.59 1007.43 1007.27 1007.11 1006.95 1006.75 1006.55 1006.39 1006.19 1005.99 1005.83 1005.71 1005.63 1005.51 1005.43 1005.27 1005.15 1005.11 1005.03 1004.99 1005.03 1005.07 1005.19 1005.23 1005.15 1004.99 1004.99 1004.99 1004.99 1004.99
1012.43 1012.27 1012.15 1011.99 1011.83 1011.75 1011.67 1011.59 1011.55 1011.47 1011.43 1011.39 1011.35 1011.27 1011.19 1011.11 1011.03 1010.95 1010.87 1010.75 1010.67 1010.51 1010.39 1010.19 1009.99 1009.83 1009.67 1009.51 1009.35 1009.15 1008.99 1008.75 1008.59 1008.43 1008.23 1007.99 1007.83 1007.63 1007.47 1007.35 1007.23 1007.07 1006.91 1006.75 1006.59 1006.43 1006.23 1006.03 1005.83 1005.71 1005.59 1005.51 1005.39 1005.27 1005.19 1005.15 1005.07 1004.99 1004.95 1005.03 1005.11 1005.15 1005.15 1004.99 1004.95 1004.99 1005.03 1005.03 1004.99
1012.23 1012.11 1011.99 1011.83 1011.71 1011.55 1011.47 1011.43 1011.35 1011.27 1011.23 1011.19 1011.15 1011.11 1010.99 1010.91 1010.87 1010.75 1010.71 1010.55 1010.43 1010.27 1010.15 1009.99 1009.79 1009.59 1009.43 1009.27 1009.15 1008.99 1008.79 1008.55 1008.35 1008.15 1007.99 1007.79 1007.59 1007.43 1007.27 1007.15 1006.99 1006.87 1006.71 1006.55 1006.43 1006.27 1006.11 1005.87 1005.71 1005.55 1005.47 1005.43 1005.31 1005.27 1005.19 1005.15 1005.07 1004.99 1004.99 1005.03 1005.11 1005.11 1004.99 1004.95 1004.91 1004.99 1004.99 1004.99 1004.91
1012.07 1011.95 1011.79 1011.71 1011.55 1011.39 1011.27 1011.23 1011.15 1011.11 1011.03 1010.99 1010.95 1010.87 1010.83 1010.75 1010.67 1010.55 1010.47 1010.35 1010.19 1010.07 1009.91 1009.79 1009.59 1009.43 1009.27 1009.11 1008.91 1008.75 1008.59 1008.39 1008.15 1007.91 1007.71 1007.55 1007.39 1007.23 1007.07 1006.91 1006.75 1006.63 1006.47 1006.35 1006.19 1006.03 1005.91 1005.75 1005.59 1005.47 1005.39 1005.35 1005.27 1005.27 1005.19 1005.15 1005.07 1004.99 1004.99 1005.03 1005.11 1005.07 1004.99 1004.91 1004.95 1004.99 1004.99 1004.99 1004.95
1011.91 1011.75 1011.59 1011.47 1011.39 1011.23 1011.11 1010.99 1010.91 1010.87 1010.83 1010.79 1010.75 1010.71 1010.63 1010.55 1010.47 1010.39 1010.27 1010.15 1009.99 1009.87 1009.75 1009.59 1009.43 1009.27 1009.15 1008.95 1008.75 1008.55 1008.39 1008.15 1007.99 1007.71 1007.51 1007.27 1007.11 1006.99 1006.83 1006.71 1006.55 1006.43 1006.27 1006.11 1005.95 1005.83 1005.71 1005.55 1005.43 1005.35 1005.31 1005.31 1005.27 1005.27 1005.23 1005.15 1005.07 1005.03 1005.03 1005.07 1005.07 1004.99 1004.91 1004.91 1004.99 1005.07 1005.11 1005.07 1004.99
1011.75 1011.59 1011.43 1011.27 1011.19 1011.07 1010.91 1010.83 1010.75 1010.71 1010.63 1010.55 1010.55 1010.51 1010.47 1010.43 1010.35 1010.27 1010.15 1009.99 1009.83 1009.71 1009.59 1009.43 1009.27 1009.11 1008.91 1008.75 1008.55 1008.39 1008.19 1007.99 1007.79 1007.55 1007.35 1007.15 1006.91 1006.75 1006.59 1006.43 1006.27 1006.19 1006.03 1005.87 1005.75 1005.63 1005.51 1005.35 1005.27 1005.19 1005.19 1005.27 1005.27 1005.27 1005.23 1005.15 1005.11 1005.07 1005.11 1005.11 1005.03 1004.99 1004.95 1004.99 1005.07 1005.15 1005.19 1005.11 1005.03
1011.55 1011.43 1011.27 1011.15 1010.99 1010.87 1010.71 1010.63 1010.55 1010.51 1010.43 1010.43 1010.35 1010.31 1010.27 1010.19 1010.15 1010.03 1009.91 1009.79 1009.67 1009.55 1009.43 1009.27 1009.11 1008.95 1008.79 1008.59 1008.39 1008.19 1007.99 1007.83 1007.63 1007.43 1007.23 1006.99 1006.75 1006.55 1006.31 1006.19 1006.07 1005.99 1005.87 1005.71 1005.55 1005.43 1005.35 1005.23 1005.15 1005.03 1005.07 1005.19 1005.23 1005.23 1005.19 1005.15 1005.11 1005.07 1005.07 1005.07 1005.07 1005.07 1005.03 1005.07 1005.15 1005.23 1005.27 1005.19 1005.15
1011.35 1011.23 1011.11 1010.99 1010.83 1010.71 1010.55 1010.47 1010.39 1010.31 1010.27 1010.23 1010.15 1010.11 1010.03 1009.99 1009.87 1009.79 1009.71 1009.63 1009.55 1009.43 1009.27 1009.15 1008.99 1008.83 1008.59 1008.43 1008.23 1008.03 1007.87 1007.71 1007.51 1007.27 1007.07 1006.79 1006.55 1006.31 1006.15 1005.99 1005.87 1005.75 1005.63 1005.55 1005.43 1005.31 1005.19 1005.11 1004.99 1004.87 1004.95 1005.11 1005.19 1005.23 1005.19 1005.15 1005.11 1005.07 1005.11 1005.15 1005.15 1005.19 1005.19 1005.23 1005.27 1005.31 1005.31 1005.31 1005.27
1011.15 1011.03 1010.95 1010.75 1010.63 1010.47 1010.31 1010.23 1010.15 1010.11 1010.03 1009.99 1009.95 1009.87 1009.83 1009.75 1009.71 1009.63 1009.55 1009.43 1009.35 1009.27 1009.19 1009.03 1008.87 1008.71 1008.47 1008.27 1008.11 1007.95 1007.71 1007.51 1007.31 1007.15 1006.87 1006.59 1006.35 1006.15 1005.95 1005.79 1005.71 1005.55 1005.47 1005.35 1005.27 1005.15 1005.03 1004.95 1004.83 1004.79 1004.87 1005.11 1005.19 1005.23 1005.23 1005.23 1005.23 1005.19 1005.19 1005.27 1005.27 1005.31 1005.31 1005.35 1005.35 1005.43 1005.43 1005.47 1005.43
1010.99 1010.87 1010.75 1010.59 1010.43 1010.27 1010.15 1010.03 1009.99 1009.91 1009.83 1009.79 1009.75 1009.71 1009.67 1009.59 1009.55 1009.47 1009.43 1009.31 1009.23 1009.15 1009.03 1008.95 1008.79 1008.55 1008.31 1008.15 1007.99 1007.79 1007.59 1007.39 1007.15 1006.91 1006.71 1006.43 1006.15 1005.91 1005.75 1005.59 1005.47 1005.39 1005.27 1005.15 1005.07 1004.99 1004.87 1004.79 1004.71 1004.83 1004.95 1005.15 1005.27 1005.35 1005.39 1005.35 1005.35 1005.31 1005.31 1005.39 1005.43 1005.47 1005.47 1005.43 1005.43 1005.47 1005.51 1005.55 1005.51
1010.83 1010.71 1010.55 1010.43 1010.27 1010.11 1009.99 1009.87 1009.83 1009.71 1009.67 1009.63 1009.59 1009.55 1009.51 1009.43 1009.43 1009.35 1009.27 1009.19 1009.15 1009.03 1008.91 1008.83 1008.63 1008.43 1008.23 1007.99 1007.83 1007.63 1007.43 1007.27 1006.99 1006.75 1006.51 1006.27 1005.99 1005.79 1005.55 1005.43 1005.27 1005.15 1005.03 1004.95 1004.87 1004.75 1004.67 1004.63 1004.71 1004.87 1005.07 1005.23 1005.39 1005.47 1005.51 1005.51 1005.51 1005.51 1005.51 1005.51 1005.55 1005.55 1005.55 1005.51 1005.47 1005.55 1005.55 1005.59 1005.55
1010.63 1010.51 1010.39 1010.27 1010.07 1009.95 1009.83 1009.71 1009.63 1009.55 1009.51 1009.47 1009.43 1009.39 1009.35 1009.31 1009.27 1009.23 1009.15 1009.07 1008.99 1008.91 1008.79 1008.63 1008.51 1008.31 1008.15 1007.91 1007.71 1007.55 1007.35 1007.15 1006.87 1006.59 1006.35 1006.11 1005.79 1005.55 1005.39 1005.27 1005.11 1004.95 1004.83 1004.67 1004.59 1004.55 1004.59 1004.71 1004.87 1005.03 1005.23 1005.39 1005.51 1005.55 1005.59 1005.59 1005.59 1005.59 1005.59 1005.63 1005.67 1005.67 1005.59 1005.55 1005.51 1005.55 1005.59 1005.63 1005.55
1010.43 1010.31 1010.19 1010.07 1009.91 1009.79 1009.67 1009.55 1009.47 1009.43 1009.35 1009.27 1009.27 1009.23 1009.19 1009.19 1009.15 1009.07 1008.99 1008.91 1008.83 1008.75 1008.67 1008.55 1008.39 1008.23 1008.07 1007.87 1007.71 1007.51 1007.27 1007.03 1006.79 1006.51 1006.19 1005.83 1005.55 1005.35 1005.23 1005.07 1004.87 1004.71 1004.59 1004.55 1004.51 1004.59 1004.71 1004.87 1004.99 1005.19 1005.35 1005.51 1005.59 1005.67 1005.71 1005.67 1005.67 1005.67 1005.67 1005.71 1005.71 1005.71 1005.63 1005.55 1005.55 1005.63 1005.71 1005.71 1005.63
1010.23 1010.15 1009.99 1009.87 1009.75 1009.63 1009.55 1009.43 1009.31 1009.27 1009.19 1009.11 1009.07 1008.99 1008.99 1008.99 1008.99 1008.91 1008.87 1008.79 1008.71 1008.63 1008.55 1008.43 1008.31 1008.15 1007.99 1007.83 1007.63 1007.43 1007.27 1006.99 1006.75 1006.43 1006.11 1005.71 1005.35 1005.15 1005.07 1004.95 1004.87 1004.75 1004.71 1004.67 1004.71 1004.83 1004.91 1005.03 1005.15 1005.31 1005.47 1005.59 1005.67 1005.71 1005.67 1005.63 1005.63 1005.63 1005.63 1005.63 1005.67 1005.67 1005.63 1005.59 1005.71 1005.75 1005.83 1005.79 1005.71
1010.03 1009.95 1009.83 1009.71 1009.55 1009.47 1009.39 1009.27 1009.15 1009.11 1008.99 1008.95 1008.87 1008.83 1008.83 1008.83 1008.79 1008.75 1008.71 1008.67 1008.59 1008.51 1008.43 1008.31 1008.19 1008.03 1007.87 1007.71 1007.55 1007.43 1007.23 1007.03 1006.75 1006.47 1006.15 1005.71 1005.35 1005.19 1005.15 1005.07 1005.07 1005.03 1004.99 1004.99 1005.03 1005.11 1005.15 1005.19 1005.27 1005.47 1005.59 1005.67 1005.71 1005.67 1005.63 1005.59 1005.55 1005.55 1005.55 1005.55 1005.63 1005.67 1005.67 1005.71 1005.83 1005.87 1005.95 1005.95 1005.87
1009.87 1009.79 1009.67 1009.55 1009.43 1009.31 1009.23 1009.11 1009.03 1008.95 1008.87 1008.75 1008.71 1008.67 1008.67 1008.63 1008.59 1008.59 1008.55 1008.55 1008.47 1008.39 1008.27 1008.19 1008.11 1007.99 1007.83 1007.63 1007.51 1007.35 1007.23 1007.07 1006.83 1006.55 1006.19 1005.83 1005.55 1005.43 1005.35 1005.27 1005.23 1005.23 1005.23 1005.23 1005.27 1005.27 1005.31 1005.39 1005.47 1005.63 1005.75 1005.75 1005.67 1005.59 1005.55 1005.55 1005.55 1005.55 1005.55 1005.59 1005.71 1005.71 1005.79 1005.87 1005.99 1006.03 1006.11 1006.15 1006.11
1009.71 1009.59 1009.47 1009.39 1009.27 1009.15 1009.07 1008.99 1008.87 1008.79 1008.71 1008.59 1008.55 1008.55 1008.55 1008.51 1008.47 1008.47 1008.43 1008.43 1008.35 1008.27 1008.15 1008.07 1007.99 1007.87 1007.71 1007.59 1007.47 1007.35 1007.19 1007.07 1006.87 1006.59 1006.31 1006.07 1005.83 1005.67 1005.55 1005.43 1005.43 1005.39 1005.39 1005.39 1005.43 1005.43 1005.51 1005.59 1005.71 1005.79 1005.83 1005.79 1005.71 1005.63 1005.59 1005.55 1005.55 1005.55 1005.59 1005.71 1005.79 1005.91 1005.99 1006.11 1006.19 1006.27 1006.39 1006.43 1006.39
1009.55 1009.43 1009.27 1009.19 1009.11 1008.99 1008.91 1008.83 1008.71 1008.59 1008.55 1008.47 1008.43 1008.43 1008.43 1008.39 1008.35 1008.31 1008.27 1008.27 1008.23 1008.15 1008.07 1007.99 1007.87 1007.79 1007.71 1007.59 1007.47 1007.31 1007.19 1007.03 1006.91 1006.71 1006.47 1006.27 1006.03 1005.87 1005.71 1005.63 1005.55 1005.55 1005.51 1005.51 1005.55 1005.55 1005.67 1005.79 1005.83 1005.87 1005.87 1005.83 1005.71 1005.71 1005.71 1005.71 1005.67 1005.67 1005.71 1005.83 1005.95 1006.07 1006.19 1006.27 1006.39 1006.51 1006.59 1006.63 1006.59
1009.43 1009.27 1009.15 1008.99 1008.87 1008.83 1008.75 1008.63 1008.51 1008.43 1008.39 1008.39 1008.35 1008.27 1008.27 1008.27 1008.23 1008.19 1008.19 1008.15 1008.15 1008.07 1007.99 1007.91 1007.83 1007.71 1007.67 1007.55 1007.43 1007.27 1007.15 1007.03 1006.91 1006.79 1006.59 1006.43 1006.23 1006.03 1005.87 1005.75 1005.71 1005.71 1005.67 1005.67 1005.67 1005.71 1005.79 1005.83 1005.87 1005.91 1005.87 1005.83 1005.83 1005.83 1005.83 1005.83 1005.75 1005.75 1005.83 1005.95 1006.07 1006.23 1006.31 1006.39 1006.47 1006.59 1006.71 1006.79 1006.79
1009.27 1009.15 1008.95 1008.83 1008.71 1008.59 1008.55 1008.43 1008.31 1008.27 1008.27 1008.27 1008.23 1008.15 1008.15 1008.15 1008.11 1008.11 1008.07 1008.03 1007.99 1007.91 1007.83 1007.83 1007.75 1007.71 1007.59 1007.55 1007.39 1007.27 1007.15 1007.03 1006.91 1006.83 1006.71 1006.55 1006.43 1006.23 1006.07 1005.91 1005.83 1005.79 1005.79 1005.83 1005.83 1005.83 1005.83 1005.83 1005.83 1005.87 1005.91 1005.91 1005.91 1005.91 1005.87 1005.83 1005.79 1005.79 1005.87 1005.99 1006.11 1006.19 1006.27 1006.43 1006.55 1006.67 1006.75 1006.83 1006.87
Wind_Speed
8 7 6 6 5 6 6 6 6 6 6 6 6 6 6 7 7 7 7 6 6 6 6 6 7 7 9 10 11 12 12 12 13 13 13 13 13 12 12 12 12 12 12 12 12 11 9 9 8 7 6 6 7 7 7 7 8 8 7 6 3 3 3 4 4 4 4 5 4
8 8 7 7 6 6 6 6 6 6 6 6 6 6 6 6 7 7 7 7 7 7 7 7 8 9 10 12 12 12 12 12 13 13 13 13 13 13 12 12 12 12 12 13 12 10 9 8 8 7 7 6 7 7 7 7 7 8 8 8 5 3 3 3 3 4 4 4 4
9 8 8 7 7 7 7 6 7 7 7 7 6 6 6 6 7 7 7 7 8 8 7 7 8 9 11 12 11 11 11 12 13 13 12 12 12 13 12 12 12 12 12 12 11 10 9 9 8 7 7 7 7 7 7 6 7 7 8 8 5 3 3 3 3 3 3 3 4
9 9 8 9 9 9 8 7 8 8 8 7 7 7 7 6 6 7 7 8 9 8 8 8 8 9 10 11 12 12 12 12 13 13 13 12 12 13 13 12 12 12 12 12 12 11 11 10 8 7 7 9 9 8 6 5 6 7 6 6 4 3 3 3 4 3 2 2 2
9 9 8 8 10 9 9 8 9 9 8 7 7 7 6 6 7 7 7 8 8 8 8 9 9 9 10 11 12 13 13 13 13 12 12 12 12 13 13 13 13 12 12 11 12 12 11 11 8 7 7 8 8 7 6 6 6 7 6 5 4 3 3 4 4 3 2 2 1
9 9 9 9 9 9 9 8 9 9 8 7 8 8 8 7 7 7 8 8 9 10 11 11 11 10 11 12 12 13 13 13 12 12 12 12 12 13 13 13 13 12 11 11 12 12 12 10 8 7 7 7 7 7 7 6 6 6 6 5 4 4 3 4 3 3 2 1 1
9 10 10 10 10 9 9 8 8 8 8 8 9 10 10 9 9 10 11 10 10 10 10 10 10 10 11 11 12 12 12 12 12 12 12 12 12 13 13 13 13 13 12 12 12 11 11 10 8 7 7 7 7 7 7 6 6 6 7 7 5 4 3 4 3 3 2 2 2
10 10 10 10 10 10 10 10 9 9 8 8 9 10 11 12 12 12 12 11 11 10 10 9 10 11 12 12 12 12 13 13 12 12 12 12 13 13 13 14 13 13 13 12 12 11 11 9 8 7 7 7 6 6 7 6 6 7 8 8 6 4 3 3 3 3 2 2 2
9 10 10 10 10 10 10 10 10 9 9 10 11 12 12 12 13 13 12 11 11 10 10 10 11 12 13 13 13 13 12 12 12 12 12 12 12 13 13 13 13 13 13 12 12 12 12 9 8 7 7 6 7 7 7 7 7 8 9 9 7 5 4 3 3 3 3 2 2
10 10 10 10 10 10 10 10 10 10 10 11 12 12 12 12 12 12 11 10 10 11 11 11 12 13 14 14 13 13 12 11 11 11 12 12 12 12 12 12 12 12 12 12 12 12 11 9 8 8 8 8 9 9 9 8 7 8 8 7 6 6 5 4 4 4 4 3 2
11 11 10 9 10 10 10 10 9 9 9 10 11 11 11 12 12 12 11 11 11 12 13 12 13 13 13 13 12 12 12 11 11 11 12 12 12 12 12 12 12 12 12 12 11 11 10 9 9 10 10 9 10 10 9 9 7 8 8 8 7 7 6 5 4 4 4 4 4
11 11 10 10 10 10 10 10 9 9 9 10 10 10 10 11 11 12 12 12 13 13 13 12 13 13 13 12 12 12 12 12 12 12 12 12 13 13 13 13 13 13 12 12 11 10 9 9 10 11 12 12 10 9 8 9 7 7 8 9 8 7 6 5 4 3 3 4 4
11 11 11 10 10 10 10 10 9 9 9 9 9 9 9 10 11 11 12 13 13 12 11 11 12 12 12 12 12 12 12 12 12 12 12 12 13 13 13 14 13 13 13 12 11 10 10 10 11 12 13 13 10 9 9 9 7 7 7 8 8 8 7 6 4 3 3 3 4
12 11 11 11 11 10 10 10 9 8 9 9 9 9 9 9 10 11 11 11 11 11 11 11 11 11 11 12 12 13 13 13 13 13 13 13 13 13 14 14 14 13 12 11 11 11 11 11 12 12 13 13 12 11 10 9 7 6 6 7 8 7 7 6 5 4 4 4 4
12 12 11 11 11 10 10 10 9 8 8 9 8 8 8 9 9 10 10 11 11 11 10 10 10 10 11 13 13 14 14 14 14 14 14 14 13 13 14 14 14 13 13 12 12 12 12 13 13 13 13 13 12 12 11 9 8 6 6 6 7 7 6 5 5 5 4 4 4
12 12 11 11 11 10 10 9 8 8 8 8 8 8 8 8 8 9 10 11 10 10 10 10 10 11 11 12 13 14 14 14 14 14 14 14 13 13 13 14 14 14 13 13 13 13 13 12 12 13 13 12 12 11 11 10 8 6 5 5 5 5 6 6 5 5 4 4 4
13 12 11 11 11 11 11 10 9 8 8 8 8 8 8 8 8 8 9 10 10 10 10 11 11 11 11 12 12 12 13 13 13 13 13 13 13 13 13 13 14 14 14 14 14 14 14 13 13 12 12 12 11 11 10 9 8 6 5 4 4 4 5 6 5 4 4 4 4
13 12 12 11 11 11 11 11 10 10 9 9 9 9 8 8 8 9 10 10 10 11 12 13 12 12 12 12 12 12 12 12 13 13 13 13 13 13 13 14 14 14 14 14 14 14 14 14 14 13 12 11 11 10 10 9 7 6 5 3 3 4 5 6 4 3 3 3 4
13 13 12 11 11 11 11 11 11 11 10 10 9 9 9 9 9 10 10 11 11 12 13 13 12 12 12 13 13 12 12 13 14 14 14 14 14 14 14 14 14 14 14 14 14 14 15 15 15 14 12 11 10 9 9 8 7 6 4 3 3 4 5 5 4 3 2 2 3
14 13 12 12 11 11 11 11 11 10 10 9 9 9 9 9 10 11 11 12 12 12 13 13 13 13 13 13 13 13 13 12 14 14 15 14 14 14 14 14 14 14 14 14 14 14 15 15 15 14 12 11 10 9 9 8 6 5 4 3 3 4 4 5 3 2 2 2 3
14 14 13 12 11 11 11 10 10 10 10 10 10 10 10 10 10 11 12 12 12 13 13 13 13 13 13 14 14 14 14 12 13 14 14 14 14 15 15 14 14 14 14 13 14 14 15 15 15 14 12 10 10 9 8 7 6 5 4 3 3 3 4 4 3 2 2 2 3
14 13 13 12 11 11 11 10 10 10 10 10 10 10 10 10 11 11 12 12 12 12 13 13 13 13 13 14 14 14 14 13 13 13 13 13 14 14 14 13 14 14 14 14 14 14 15 15 14 13 11 10 9 9 8 7 5 4 3 3 3 4 4 3 3 2 2 2 2
14 13 13 12 11 11 11 11 10 10 10 10 10 10 10 10 11 11 12 12 12 12 12 12 12 12 13 13 14 14 14 14 14 13 14 13 14 14 14 13 13 13 13 13 13 13 13 13 13 12 10 9 9 8 7 7 5 4 3 3 4 4 4 3 3 3 2 2 1
14 13 12 11 11 11 11 10 10 10 10 10 10 10 10 11 11 11 11 12 12 12 12 11 11 12 13 13 14 14 15 15 15 14 14 14 14 14 14 13 12 12 12 11 11 11 12 11 10 9 8 8 7 7 6 6 5 4 4 4 4 4 4 3 4 3 3 2 2
14 14 13 12 12 11 11 10 10 10 10 10 10 10 10 11 11 11 11 12 12 12 12 12 12 12 12 12 13 13 14 14 15 14 14 14 14 13 13 11 11 10 10 10 13 15 15 14 11 8 7 6 6 6 5 5 5 4 4 4 4 4 4 4 4 4 3 3 4
14 14 13 13 12 12 12 11 11 11 11 11 11 10 10 10 10 11 11 12 12 12 12 12 12 11 11 11 12 12 13 13 13 13 14 13 14 13 12 11 10 9 9 11 14 16 18 18 15 12 8 6 5 5 5 5 4 4 4 5 4 4 4 5 4 4 4 4 4
14 14 13 13 13 12 12 11 11 11 11 11 10 10 10 10 10 10 11 11 12 12 11 11 11 11 11 10 11 12 12 12 12 13 13 14 14 14 13 11 10 8 9 12 15 17 17 18 17 14 10 6 6 5 5 5 4 4 4 4 3 3 4 5 5 4 4 4 5
14 14 13 13 13 13 12 11 11 11 11 11 11 11 11 11 11 11 11 11 11 11 10 10 10 9 8 8 10 11 12 12 12 12 13 13 14 14 13 11 10 9 11 14 16 17 17 17 16 14 11 8 6 5 5 4 4 4 4 3 3 3 4 4 4 4 4 4 5
14 14 14 13 13 13 12 11 11 11 11 11 11 11 11 11 11 11 11 11 11 10 9 8 7 7 7 8 9 11 12 12 12 12 12 13 14 13 13 12 11 11 13 15 16 16 16 17 16 13 11 9 5 4 3 3 3 3 3 3 3 3 3 4 4 3 3 4 4
14 14 13 13 13 13 12 12 11 11 10 10 10 11 11 11 11 11 11 11 10 10 9 8 8 8 9 10 10 10 11 11 11 11 12 13 13 13 12 12 11 11 12 15 15 16 16 16 14 11 10 9 5 3 3 2 3 3 3 3 3 3 4 4 4 4 3 3 4
14 13 13 13 14 13 13 12 11 11 10 10 10 10 11 11 11 11 10 10 10 9 9 9 10 11 11 11 10 11 11 11 11 12 12 13 13 13 12 12 11 11 12 14 15 15 16 15 11 9 9 8 5 3 2 2 3 3 3 3 3 3 4 4 4 4 4 3 4
14 13 13 13 14 13 13 12 11 11 10 10 10 10 11 11 11 10 10 10 9 9 10 10 11 11 11 11 11 11 11 12 12 12 12 12 12 13 12 11 11 11 12 14 15 15 13 9 7 8 8 8 5 4 3 3 3 3 4 4 4 4 4 4 4 4 4 3 4
14 13 13 13 14 13 13 12 11 10 10 10 10 10 10 10 10 10 10 9 9 9 9 10 10 11 11 11 11 11 11 11 12 12 12 13 13 12 11 11 10 10 11 12 11 9 6 7 8 9 8 7 5 4 4 4 4 4 4 5 5 5 5 5 5 5 4 4 4
13 13 13 13 13 13 13 12 11 10 10 10 10 10 10 10 10 10 10 9 8 8 8 9 9 10 10 10 10 10 10 10 10 11 12 13 11 10 9 7 4 3 2 3 4 6 8 9 9 9 8 7 5 4 5 5 5 5 5 6 5 5 6 6 6 6 5 5 5
13 13 13 13 13 13 13 12 11 11 10 10 10 10 10 10 10 10 9 9 8 8 8 8 9 9 9 9 9 9 9 10 10 11 12 11 7 4 2 0 3 6 8 9 9 9 9 9 9 8 7 6 4 4 5 6 6 7 7 7 7 7 7 7 7 6 6 5 6
13 13 12 13 13 13 13 12 12 11 11 10 10 10 10 9 9 9 9 8 8 8 8 8 8 9 9 9 8 8 8 9 10 10 10 8 4 4 6 7 8 9 10 10 9 8 8 8 8 7 6 4 3 4 4 5 6 7 8 9 8 8 8 8 7 6 6 6 6
13 12 12 12 13 13 12 12 12 11 11 11 10 10 9 9 9 8 8 7 7 7 8 8 8 8 8 8 7 7 7 8 8 9 8 7 5 6 6 7 7 7 8 8 8 7 7 7 7 6 5 3 3 4 4 5 6 7 8 9 9 9 8 7 7 7 7 7 7
14 13 13 12 12 12 12 12 12 12 11 11 10 9 9 8 8 8 7 7 7 7 7 7 8 8 8 7 7 6 6 6 7 7 7 7 6 5 5 6 6 6 6 6 7 7 6 7 6 5 4 3 3 4 4 4 6 7 8 8 8 8 8 7 6 7 7 8 8
15 14 13 12 12 12 12 12 12 12 11 10 10 9 8 8 7 7 6 6 6 6 7 7 7 7 7 7 6 6 5 5 5 6 6 6 6 5 5 5 5 5 5 5 5 6 6 6 6 5 4 3 3 3 4 4 6 7 8 7 7 8 7 7 6 6 7 9 10
15 14 14 13 12 12 12 12 12 12 11 10 9 9 8 8 7 7 6 6 6 6 6 7 7 7 7 6 6 5 5 4 4 4 5 5 5 5 5 4 4 4 4 5 5 5 5 6 6 5 4 2 2 3 3 4 6 7 8 7 7 7 7 6 6 6 6 7 9
15 14 14 13 13 12 12 13 12 11 10 10 9 9 8 7 7 6 6 6 6 6 6 5 6 7 6 6 5 5 4 3 3 3 4 5 5 5 5 4 3 3 4 4 4 4 5 5 6 5 4 2 2 2 3 4 6 7 8 7 7 6 6 6 6 5 5 6 6
Wind_Direction
260 260 262 265 271 277 280 282 284 286 288 290 291 293 295 295 294 292 291 290 289 290 291 293 294 295 297 299 302 303 304 304 304 305 305 304 303 302 301 299 299 301 302 302 303 302 300 299 296 293 288 285 285 285 286 288 294 298 302 303 318 343 358 355 351 345 338 328 317
261 260 259 261 265 270 275 280 282 284 285 287 289 291 292 292 290 289 287 285 285 287 289 289 290 292 294 297 299 300 300 299 300 301 302 302 301 300 299 298 299 301 302 303 303 301 299 298 297 293 289 284 282 282 285 289 295 299 300 302 309 316 320 319 328 335 337 332 325
266 263 260 259 260 264 270 276 280 284 287 289 290 290 290 288 285 284 283 282 283 284 285 285 287 290 293 296 297 296 296 295 296 297 298 299 300 300 299 298 299 300 301 302 300 299 297 296 294 290 285 281 279 279 283 289 293 294 295 298 304 306 298 287 292 304 319 328 329
265 262 259 258 259 262 267 274 281 285 288 290 290 289 286 282 280 278 279 280 280 280 280 282 286 290 293 293 293 292 292 291 293 293 294 296 298 298 298 297 298 299 300 300 298 296 295 294 290 284 279 276 276 276 279 286 289 288 288 291 293 289 280 272 271 274 284 296 318
265 261 258 258 260 262 266 271 278 283 286 288 288 285 282 279 277 276 276 278 278 278 281 285 288 289 289 288 289 290 291 291 291 292 292 294 296 297 297 296 297 298 298 298 297 296 294 293 286 279 275 273 273 272 274 279 283 283 280 277 274 271 268 266 265 265 266 270 294
269 264 259 257 259 261 264 266 273 278 283 285 283 281 280 278 276 276 277 278 280 283 285 286 286 285 286 287 288 290 291 291 291 291 292 294 295 295 296 295 295 296 297 297 296 295 293 291 284 277 273 271 271 270 271 274 277 278 276 269 260 256 258 262 266 268 275 301 318
273 269 264 260 259 259 260 263 269 275 279 280 278 277 276 276 275 276 277 279 281 283 284 284 283 284 286 288 289 290 290 290 290 291 291 292 293 294 295 295 296 297 298 298 297 296 292 288 283 276 273 270 270 269 269 270 273 275 274 270 261 254 255 263 271 281 299 341 354
274 271 267 264 262 261 261 263 268 273 277 278 277 276 276 276 275 276 277 278 278 279 280 281 282 284 286 288 288 289 289 289 289 290 290 291 292 293 294 295 296 298 299 300 299 296 293 289 282 277 274 272 271 270 270 272 274 275 275 272 266 259 255 264 278 290 307 337 7
273 268 265 262 260 260 261 264 267 271 275 278 278 278 278 276 276 276 276 275 275 277 278 280 282 284 285 285 286 287 287 288 288 289 289 289 290 292 293 294 296 297 298 299 298 296 294 289 282 277 275 274 274 275 276 276 277 276 275 273 269 265 263 267 281 288 294 304 337
274 269 265 261 259 258 260 263 266 269 273 277 278 279 278 276 275 274 273 273 276 277 278 279 282 284 285 286 286 286 286 286 286 287 287 287 287 288 290 290 292 293 295 297 297 295 292 287 282 279 277 276 277 278 278 277 275 275 275 273 270 269 269 270 279 286 289 289 293
275 272 268 264 262 261 261 263 265 267 270 274 277 277 277 275 272 271 271 273 274 275 276 279 282 284 286 286 286 285 285 285 285 285 285 285 286 286 287 287 288 289 291 293 293 292 290 286 284 282 282 281 280 279 277 273 270 271 272 272 270 268 266 265 270 279 286 290 292
276 273 269 265 263 262 262 263 265 267 269 272 274 275 274 273 271 270 271 272 273 274 276 278 281 283 284 285 285 285 284 283 283 283 284 284 285 286 286 285 285 284 285 287 289 289 289 289 289 289 288 286 283 278 275 271 266 266 268 271 268 264 260 257 258 266 279 290 293
277 273 269 266 263 262 261 261 264 266 268 271 272 272 272 271 269 269 270 271 272 274 276 279 281 282 282 283 283 284 283 283 282 282 283 284 285 285 285 284 283 283 284 285 287 289 290 292 292 290 289 287 283 279 275 271 265 262 263 268 266 262 256 251 248 251 264 280 283
278 273 269 266 264 262 260 260 263 265 268 271 272 272 272 271 270 269 269 270 272 275 277 280 281 280 280 280 281 282 282 282 282 281 282 282 283 284 284 284 283 284 284 284 286 287 289 290 289 288 286 284 282 280 277 273 267 261 260 264 265 261 255 246 240 239 244 256 266
280 275 270 266 264 261 259 259 261 264 267 270 271 272 273 274 273 272 271 272 274 276 278 279 279 279 278 278 279 280 281 281 281 281 281 281 281 282 282 283 283 283 283 284 284 285 286 288 288 287 285 283 282 281 279 275 269 262 258 260 265 264 259 245 233 228 229 237 248
281 276 271 266 263 260 259 258 260 262 264 267 268 270 272 273 274 274 273 274 275 276 277 277 278 278 279 278 279 279 280 280 280 280 280 280 280 281 281 282 283 283 284 284 284 284 285 286 286 286 285 283 282 280 278 276 271 263 254 251 260 264 262 250 233 222 219 226 236
281 276 272 266 262 260 259 259 261 263 265 267 269 271 272 275 276 276 276 275 276 276 277 277 278 279 279 279 279 279 279 279 279 279 279 279 280 280 281 281 282 283 283 283 283 284 285 287 286 285 284 282 280 279 277 276 271 262 250 239 246 255 259 254 237 222 214 221 230
283 278 272 266 262 260 259 260 262 264 267 269 271 272 273 277 279 279 278 277 276 277 278 278 278 278 278 278 278 278 278 278 278 278 278 279 280 280 280 280 280 280 281 281 282 283 285 287 287 286 284 282 279 277 276 273 269 260 247 226 227 239 249 251 240 224 213 222 231
285 280 274 268 264 261 260 259 261 264 266 268 269 271 273 276 278 279 278 276 275 276 277 278 278 278 277 278 278 278 278 278 278 278 278 278 278 278 278 277 278 278 278 279 280 281 283 284 286 286 285 282 279 276 273 268 263 255 241 217 215 226 237 242 234 223 215 230 240
286 282 277 272 267 264 262 260 261 263 265 267 267 269 271 273 274 274 274 274 274 275 276 277 277 278 278 278 278 278 277 277 277 276 276 276 277 277 276 276 277 277 277 277 277 278 280 282 284 285 284 282 278 274 270 265 258 247 233 212 207 218 227 229 218 207 209 233 248
287 284 280 275 270 267 264 262 262 263 265 266 266 267 269 271 271 271 271 272 273 274 274 275 275 276 277 277 277 277 276 275 275 275 276 276 276 275 275 276 276 276 276 276 276 277 278 281 283 283 283 281 276 272 268 262 253 240 224 207 204 212 217 215 195 181 186 215 240
288 285 282 278 272 269 266 263 262 262 263 264 264 265 267 269 270 269 270 271 272 273 273 273 273 273 274 275 275 276 275 275 274 274 274 274 274 274 274 274 274 275 275 275 275 276 277 279 280 281 280 277 273 269 264 258 247 232 214 203 201 205 206 198 170 157 162 189 216
289 286 283 279 274 269 266 263 262 261 261 262 263 265 267 269 271 271 272 272 272 272 272 272 271 271 271 272 273 274 275 275 274 273 272 272 272 272 272 271 271 271 271 272 272 273 275 277 278 277 275 271 268 264 259 251 239 223 205 197 199 198 192 174 143 135 144 163 178
291 287 284 279 274 270 266 263 261 261 260 261 263 265 267 270 272 274 273 273 272 271 272 272 272 272 272 273 273 274 274 275 275 274 274 273 272 272 271 269 268 267 267 267 267 268 270 274 276 275 272 266 263 258 252 243 230 212 196 193 196 191 176 148 123 118 120 114 95
292 288 284 279 275 271 267 262 260 259 259 260 262 265 268 271 274 275 275 273 272 272 272 272 273 274 274 275 275 275 275 275 275 275 275 274 272 270 269 267 265 263 262 262 263 264 266 268 269 269 266 261 257 251 244 236 221 204 191 192 192 182 158 127 109 101 95 85 75
293 289 284 280 276 272 268 264 261 260 259 260 262 265 268 271 274 274 274 273 273 273 274 274 274 274 274 275 275 276 275 275 275 276 276 275 273 271 268 264 261 260 259 259 260 263 265 266 264 261 256 251 245 239 234 226 211 195 187 189 187 171 146 122 108 98 89 83 79
292 289 285 281 277 273 268 264 262 261 260 260 261 264 266 269 271 271 271 271 273 274 275 275 274 274 274 275 275 276 276 277 277 278 278 277 275 272 268 263 260 258 257 257 259 262 264 266 264 258 248 237 232 226 221 213 198 186 180 181 171 153 134 121 114 107 98 90 85
292 289 286 282 278 273 269 266 263 262 260 260 261 262 264 266 267 268 269 271 273 275 275 275 275 275 275 275 276 277 279 281 281 280 279 277 274 271 268 264 260 257 256 256 259 262 265 267 264 255 241 224 221 217 210 199 185 175 166 156 142 129 122 118 114 110 104 97 91
291 289 286 283 278 274 271 267 263 261 260 260 261 262 264 266 267 268 269 270 272 273 274 276 277 276 276 276 278 281 283 283 282 281 279 277 275 272 268 264 260 257 256 256 259 262 264 266 263 251 232 211 209 206 201 191 177 164 149 133 123 120 118 114 111 108 106 103 101
292 289 286 283 279 275 271 267 263 261 260 260 260 262 263 265 265 266 267 268 270 272 274 276 277 277 278 279 282 284 284 284 282 281 279 278 276 273 269 264 259 256 255 256 259 261 264 264 257 240 215 195 193 192 190 181 166 151 137 123 117 116 116 113 110 110 110 113 110
292 289 286 283 279 276 272 269 265 263 261 259 260 261 262 263 263 264 265 267 270 272 274 276 277 278 279 281 283 284 284 285 284 283 281 280 277 274 270 265 260 257 256 257 259 261 261 257 240 213 189 178 175 173 169 159 148 137 127 121 119 119 119 114 108 106 110 119 116
292 289 285 282 280 277 274 271 267 264 261 259 258 259 260 261 262 264 265 267 269 272 274 276 277 279 281 283 284 286 286 287 287 285 283 281 277 273 269 264 260 258 257 257 257 256 250 230 195 171 162 158 154 149 144 137 131 123 117 115 115 116 115 110 103 100 100 105 105
291 289 285 282 280 278 276 273 268 264 261 258 257 256 257 259 261 262 263 264 266 269 272 274 276 279 282 285 287 289 289 289 289 289 287 283 277 271 265 261 259 256 254 252 247 233 199 159 148 143 141 138 135 135 137 135 130 122 115 111 107 103 99 94 91 89 87 85 87
292 289 286 283 281 280 277 274 269 264 260 257 255 254 254 256 259 260 261 262 264 267 269 272 275 278 281 284 286 289 291 293 294 295 293 288 277 266 258 255 252 243 222 197 159 139 131 129 129 129 129 129 129 133 134 132 124 117 112 107 102 95 89 84 81 79 78 78 81
294 290 286 284 282 280 278 275 270 265 260 257 255 253 253 253 255 257 259 261 263 266 269 272 275 277 279 282 283 287 292 297 300 302 301 298 286 266 237 49 65 72 78 87 96 104 112 117 119 121 124 126 130 132 130 124 117 112 107 102 96 90 84 80 78 76 75 75 79
296 291 286 283 282 280 278 275 271 266 261 256 254 254 253 253 253 254 256 258 261 264 267 271 273 276 278 280 282 287 294 301 305 309 313 321 355 61 78 72 68 68 72 78 86 95 103 110 113 117 122 128 133 132 127 120 112 106 101 96 91 86 82 79 77 75 73 72 75
298 292 286 282 281 280 278 275 271 266 261 256 254 253 253 254 254 253 253 253 257 260 264 268 271 273 276 278 283 290 297 303 309 316 327 348 26 55 69 69 67 68 72 80 88 96 104 111 116 121 128 137 136 130 122 116 110 104 99 94 90 86 82 79 76 74 71 69 71
300 295 289 283 280 278 276 274 270 265 260 256 254 253 252 253 253 252 250 249 251 256 260 266 269 271 274 277 283 289 297 305 314 324 336 355 18 42 60 68 68 69 74 82 93 103 112 120 126 132 139 144 134 126 120 116 111 105 100 95 92 89 86 83 80 76 72 69 68
301 297 291 284 279 276 274 272 268 264 260 257 254 253 252 251 251 249 247 245 247 251 257 263 267 270 273 277 281 287 295 305 319 331 342 353 6 22 43 64 70 74 79 87 98 111 123 133 136 139 140 140 132 126 122 118 113 108 104 101 99 97 94 91 88 84 79 75 72
299 296 291 285 279 274 271 268 265 261 258 255 252 251 250 249 250 249 248 246 245 247 252 259 265 269 272 274 277 281 289 304 324 338 345 351 358 9 23 49 68 79 87 96 107 120 131 137 136 134 131 131 134 134 132 128 119 115 111 109 108 105 102 97 95 93 91 87 82
297 294 290 285 279 274 269 266 263 260 255 251 248 247 248 248 249 248 246 244 243 244 247 255 261 266 269 270 271 275 282 300 329 345 350 352 357 3 12 28 53 75 91 103 114 124 130 131 127 123 121 120 139 149 148 139 126 121 119 118 116 112 106 101 98 98 98 96 91